Killeen/Ft Hood, TX

11:17 PM CDT on September 19, 2019 (GMT -0500)
Hood Army Air Field

Weather History for KHLR - August, 2019

Change the Weather History Date:

Thursday, August 22, 2019

  Actual Average Record
Temperature  
Mean Temperature 86 °F -  
Max Temperature 97 °F 93 °F 105 °F (2011)
Min Temperature 76 °F 73 °F 69 °F (1996)
Cooling Degree Days 21    
Growing Degree Days 36 (Base 50)    
Moisture  
Dew Point 69 °F    
Average Humidity 57    
Maximum Humidity 85    
Minimum Humidity 35    
Precipitation  
Precipitation 0.00 in - - ()
Sea Level Pressure  
Sea Level Pressure 29.85 in    
Wind  
Wind Speed 8 mph ()    
Max Wind Speed 15 mph    
Max Gust Speed 23 mph    
Visibility 10.0 miles    
Events      
Averages and records for this station are not official NWS values.
T = Trace of Precipitation, MM = Missing Value Source: Averaged Metar Reports

Daily Weather History Graph

Daily Weather History Graph

Search for Another Location

Airport or City:

Astronomy

Aug. 22, 2019 Rise Set
Actual Time 7:00 AM CDT 8:06 PM CDT
Civil Twilight 6:35 AM CDT 8:31 PM CDT
Nautical Twilight 6:05 AM CDT 9:00 PM CDT
Astronomical Twilight 5:35 AM CDT 9:31 PM CDT
Moon No Moon Rise 1:12 PM CDT (8/22)
Length of Visible Light 13h 55m
Length of Day
13h 05m
Waning Gibbous, 59% of the Moon is Illuminated
Aug 22
Waning Gibbous
Aug 23
Last Quarter
Aug 30
New
Sep 5
First Quarter
Sep 13
Full

Hourly Weather History & Observations

Time (CDT) Temp. Heat Index Dew Point Humidity Pressure Visibility Wind Dir Wind Speed Gust Speed Precip Events Conditions
12:58 AM 82.0 °F 84.9 °F 67.8 °F 62% 29.89 in 10.0 mi SSE 9.2 mph - N/A   Clear
1:58 AM 80.4 °F 83.4 °F 68.9 °F 68% 29.89 in 10.0 mi South 5.8 mph - N/A   Clear
2:58 AM 79.0 °F - 69.6 °F 73% 29.88 in 10.0 mi South 5.8 mph - N/A   Clear
3:58 AM 78.8 °F - 69.1 °F 72% 29.88 in 10.0 mi South 9.2 mph - N/A   Clear
4:58 AM 77.7 °F - 69.8 °F 76% 29.88 in 10.0 mi South 8.1 mph - N/A   Clear
5:58 AM 76.8 °F - 70.7 °F 81% 29.88 in 10.0 mi South 4.6 mph - N/A   Clear
6:58 AM 76.1 °F - 71.2 °F 85% 29.90 in 9.0 mi South 5.8 mph - N/A   Clear
7:58 AM 77.9 °F - 72.0 °F 82% 29.92 in 10.0 mi South 4.6 mph - N/A   Clear
8:58 AM 81.1 °F 85.8 °F 72.5 °F 75% 29.93 in 10.0 mi SSW 13.8 mph - N/A   Clear
9:58 AM 84.2 °F 89.3 °F 71.4 °F 65% 29.91 in 10.0 mi SSW 12.7 mph - N/A   Clear
10:58 AM 87.4 °F 92.7 °F 70.5 °F 57% 29.90 in 10.0 mi SSW 9.2 mph - N/A   Clear
11:58 AM 90.7 °F 95.9 °F 69.6 °F 50% 29.89 in 10.0 mi South 11.5 mph - N/A   Clear
12:22 PM 91.4 °F 95.4 °F 68.0 °F 46% 29.88 in 10.0 mi South 12.7 mph - N/A   Clear
12:58 PM 92.3 °F 95.6 °F 66.9 °F 43% 29.87 in 10.0 mi South 5.8 mph - N/A   Clear
1:58 PM 94.6 °F 98.9 °F 67.6 °F 41% 29.85 in 10.0 mi South 8.1 mph - N/A   Scattered Clouds
2:58 PM 94.8 °F 98.7 °F 67.1 °F 40% 29.83 in 10.0 mi ESE 11.5 mph - N/A   Partly Cloudy
3:58 PM 96.1 °F 98.8 °F 65.3 °F 36% 29.79 in 10.0 mi SE 13.8 mph 17.3 mph N/A   Partly Cloudy
4:58 PM 96.8 °F 100.1 °F 65.5 °F 36% 29.78 in 10.0 mi SSE 11.5 mph - N/A   Scattered Clouds
5:58 PM 96.6 °F 99.2 °F 64.6 °F 35% 29.76 in 10.0 mi SE 10.4 mph - N/A   Partly Cloudy
6:58 PM 95.5 °F 98.4 °F 65.1 °F 37% 29.76 in 10.0 mi ESE 11.5 mph 19.6 mph N/A   Mostly Cloudy
7:58 PM 91.9 °F 93.7 °F 64.2 °F 40% 29.78 in 10.0 mi SE 9.2 mph - N/A   Clear
8:58 PM 90.1 °F 92.7 °F 66.0 °F 45% 29.79 in 10.0 mi SE 11.5 mph - N/A   Clear
9:58 PM 88.2 °F 92.5 °F 69.3 °F 53% 29.83 in 10.0 mi SSE 13.8 mph - N/A   Scattered Clouds
10:58 PM 85.5 °F 91.1 °F 71.8 °F 63% 29.85 in 10.0 mi SSE 15.0 mph 21.9 mph N/A   Clear
11:58 PM 83.7 °F 89.2 °F 72.0 °F 68% 29.85 in 10.0 mi South 15.0 mph 23.0 mph N/A   Clear